| time (UTC) | temp F | wind direction | speed MPH | gust MPH | rain 1hr in | rain 24hr in | rain mn in | humidity % | barometer mb |
| 20260901103639 | 64 | 324 | 0.0 | 1.0 | 0.00 | 0.00 | 0.00 | 1 | 1008.1 |
| 20260901102635 | 64 | 330 | 1.0 | 2.0 | 0.00 | 0.00 | 0.00 | 1 | 1008.1 |
| 20260901101632 | 65 | 317 | 3.0 | 3.0 | 0.00 | 0.00 | 0.00 | 1 | 1008.2 |
| 20260901100629 | 65 | 298 | 3.0 | 4.0 | 0.00 | 0.00 | 0.00 | 1 | 1008.2 |
| 20260901095645 | 65 | 275 | 1.0 | 2.0 | 0.00 | 0.00 | 0.00 | 1 | 1008.3 |
| 20260901094621 | 65 | 301 | 4.0 | 4.0 | 0.00 | 0.00 | 0.00 | 1 | 1008.3 |
| 20260901093617 | 65 | 273 | 2.0 | 2.0 | 0.00 | 0.00 | 0.00 | 1 | |
| 20260901092634 | 65 | 309 | 2.0 | 3.0 | 0.00 | 0.00 | 0.00 | 1 | 1008.2 |
| 20260901091631 | 66 | 306 | 2.0 | 3.0 | 0.00 | 0.00 | 0.00 | 1 | 1008.1 |
| 20260901090627 | 64 | 215 | 1.0 | 2.0 | 0.00 | 0.00 | 0.00 | 1 | 1008.2 |
| 20260901085623 | 63 | 303 | 3.0 | 4.0 | 0.00 | 0.00 | 0.00 | 1 | 1008.0 |
| 20260901084620 | 63 | 306 | 3.0 | 3.0 | 0.00 | 0.00 | 0.00 | 1 | 1008.3 |
| 20260901083618 | 64 | 337 | 2.0 | 2.0 | 0.00 | 0.00 | 0.00 | 1 | 1008.2 |
| 20260901082653 | 64 | 298 | 3.0 | 3.0 | 0.00 | 0.00 | 0.00 | 1 | 1008.3 |
| 20260901081629 | 64 | 299 | 3.0 | 3.0 | 0.00 | 0.00 | 0.00 | 1 | 1008.4 |
| 20260901080705 | 63 | 274 | 2.0 | 4.0 | 0.00 | 0.00 | 0.00 | 1 | 1008.5 |
| 20260901075702 | 64 | 316 | 3.0 | 3.0 | 0.00 | 0.00 | 0.00 | 1 | 1008.5 |
| 20260901074639 | 64 | 292 | 2.0 | 2.0 | 0.00 | 0.00 | 0.00 | 1 | 1008.5 |
| 20260901073635 | 65 | 284 | 1.0 | 2.0 | 0.00 | 0.00 | 0.00 | 1 | 1008.5 |
| 20260901072631 | 65 | 304 | 3.0 | 4.0 | 0.00 | 0.00 | 0.00 | 1 | 1008.4 |
| 20260901071627 | 66 | 302 | 3.0 | 4.0 | 0.00 | 0.00 | 0.00 | 1 | 1008.5 |
| 20260901070623 | 65 | 287 | 2.0 | 3.0 | 0.00 | 0.00 | 0.00 | 1 | 1008.5 |
| 20260901065620 | 65 | 309 | 2.0 | 4.0 | 0.00 | 0.00 | 0.00 | 1 | 1008.5 |
| 20260901064617 | 66 | 317 | 3.0 | 4.0 | 0.00 | 0.00 | 0.00 | 1 | 1008.4 |
| 20260901063634 | 67 | 322 | 3.0 | 4.0 | 0.00 | 0.00 | 0.00 | 1 | 1008.7 |
| 20260901062630 | 68 | 342 | 3.0 | 4.0 | 0.00 | 0.00 | 0.00 | 1 | 1008.7 |
| 20260901061627 | 69 | 316 | 3.0 | 4.0 | 0.00 | 0.00 | 0.00 | 1 | 1008.7 |
| 20260901060625 | 70 | 318 | 3.0 | 4.0 | 0.00 | 0.00 | 0.00 | 1 | 1008.7 |
| 20260901055620 | 71 | 339 | 4.0 | 5.0 | 0.00 | 0.00 | 0.00 | 1 | 1008.7 |
| 20260901054637 | 72 | 346 | 3.0 | 4.0 | 0.00 | 0.00 | 0.00 | 1 | 1008.8 |
| 20260901053714 | 72 | 355 | 3.0 | 4.0 | 0.00 | 0.00 | 0.00 | 1 | 1008.9 |
| 20260901052630 | 72 | 350 | 4.0 | 4.0 | 0.00 | 0.00 | 0.00 | 1 | 1009.0 |
| 20260901051627 | 73 | 356 | 2.0 | 3.0 | 0.00 | 0.00 | 0.00 | 1 | 1009.0 |
| 20260901050624 | 72 | 345 | 2.0 | 2.0 | 0.00 | 0.00 | 0.00 | 1 | 1009.1 |
| 20260901045620 | 73 | 337 | 2.0 | 3.0 | 0.00 | 0.00 | 0.00 | 1 | 1009.1 |
| 20260901044616 | 73 | 332 | 2.0 | 3.0 | 0.00 | 0.00 | 0.00 | 1 | 1009.2 |
| 20260901043633 | 73 | 339 | 4.0 | 5.0 | 0.00 | 0.00 | 0.00 | 1 | 1009.1 |
| 20260901042630 | 73 | 321 | 3.0 | 4.0 | 0.00 | 0.00 | 0.00 | 1 | 1009.1 |
| 20260901041708 | 74 | 324 | 3.0 | 4.0 | 0.00 | 0.00 | 0.00 | 1 | 1009.0 |
| 20260901040624 | 74 | 328 | 3.0 | 5.0 | 0.00 | 0.00 | 0.00 | 1 | 1009.0 |
| 20260901035620 | 73 | 332 | 5.0 | 7.0 | 0.00 | 0.00 | 0.00 | 1 | 1009.0 |
| 20260901034617 | 73 | 320 | 6.0 | 7.0 | 0.00 | 0.00 | 0.00 | 1 | 1009.1 |
| 20260901033633 | 74 | 326 | 5.0 | 7.0 | 0.00 | 0.00 | 0.00 | 1 | 1009.1 |
| 20260901032630 | 74 | 320 | 4.0 | 5.0 | 0.00 | 0.00 | 0.00 | 1 | 1008.8 |
| 20260901031627 | 74 | 334 | 6.0 | 7.0 | 0.00 | 0.00 | 0.00 | 1 | 1008.9 |
| 20260901030624 | 75 | 336 | 5.0 | 6.0 | 0.00 | 0.00 | 0.00 | 1 | 1009.0 |
| 20260901025620 | 76 | 335 | 5.0 | 6.0 | 0.00 | 0.00 | 0.00 | 1 | 1008.9 |
| 20260901024636 | 76 | 337 | 5.0 | 6.0 | 0.00 | 0.00 | 0.00 | 1 | 1008.9 |
| 20260901023633 | 76 | 327 | 3.0 | 4.0 | 0.00 | 0.00 | 0.00 | 1 | 1008.9 |
| 20260901022630 | 78 | 318 | 3.0 | 3.0 | 0.00 | 0.00 | 0.00 | 1 | 1009.1 |
| 20260901021627 | 80 | 344 | 3.0 | 4.0 | 0.00 | 0.00 | 0.00 | 1 | 1008.8 |
| 20260901020623 | 82 | 6 | 4.0 | 6.0 | 0.00 | 0.00 | 0.00 | 1 | 1008.9 |
| 20260901015620 | 83 | 359 | 5.0 | 6.0 | 0.00 | 0.00 | 0.00 | 1 | 1009.0 |
| 20260901014638 | 83 | 1 | 4.0 | 6.0 | 0.00 | 0.00 | 0.00 | 1 | 1009.1 |
| 20260901013634 | 84 | 4 | 5.0 | 6.0 | 0.00 | 0.00 | 0.00 | 1 | 1009.2 |
| 20260901012630 | 84 | 27 | 5.0 | 7.0 | 0.00 | 0.00 | 0.00 | 1 | 1009.3 |
| 20260901011627 | 85 | 10 | 6.0 | 8.0 | 0.00 | 0.00 | 0.00 | 1 | 1009.3 |
| 20260901010624 | 85 | 11 | 5.0 | 8.0 | 0.00 | 0.00 | 0.00 | 1 | 1009.6 |
| 20260901005620 | 85 | 15 | 7.0 | 10.0 | 0.00 | 0.00 | 0.00 | 1 | 1009.6 |
| 20260901004637 | 85 | 17 | 4.0 | 5.0 | 0.00 | 0.00 | 0.00 | 1 | 1009.7 |
| 20260901003634 | 85 | 19 | 7.0 | 11.0 | 0.00 | 0.00 | 0.00 | 1 | 1009.8 |
| 20260901002630 | 85 | 11 | 7.0 | 9.0 | 0.00 | 0.00 | 0.00 | 1 | 1009.9 |
| 20260901001627 | 84 | 9 | 5.0 | 7.0 | 0.00 | 0.00 | 0.00 | 1 | 1010.1 |
| 20260901000625 | 85 | 34 | 5.0 | 8.0 | 0.00 | 0.00 | 0.00 | 1 | 1010.3 |
| 20260831235619 | 85 | 42 | 5.0 | 7.0 | 0.00 | 0.00 | 0.00 | 1 | 1010.4 |
| 20260831234621 | 84 | 24 | 7.0 | 10.0 | 0.00 | 0.00 | 0.00 | 1 | 1010.6 |
| 20260831233633 | 84 | 37 | 4.0 | 6.0 | 0.00 | 0.00 | 0.00 | 1 | 1010.9 |
| 20260831232649 | 83 | 24 | 5.0 | 6.0 | 0.00 | 0.00 | 0.00 | 1 | 1011.0 |
| 20260831231625 | 83 | 22 | 5.0 | 7.0 | 0.00 | 0.00 | 0.00 | 1 | 1011.2 |
| 20260831230622 | 83 | 37 | 6.0 | 8.0 | 0.00 | 0.00 | 0.00 | 1 | 1011.2 |
| 20260831225619 | 82 | 26 | 7.0 | 10.0 | 0.00 | 0.00 | 0.00 | 1 | 1011.4 |
| 20260831224635 | 81 | 60 | 6.0 | 8.0 | 0.00 | 0.00 | 0.00 | 1 | 1011.6 |
| 20260831223632 | 82 | 51 | 6.0 | 8.0 | 0.00 | 0.00 | 0.00 | 1 | 1011.8 |
| 20260831222628 | 81 | 19 | 6.0 | 7.0 | 0.00 | 0.00 | 0.00 | 1 | 1011.8 |
| 20260831221625 | 81 | 52 | 6.0 | 8.0 | 0.00 | 0.00 | 0.00 | 1 | 1011.9 |
| 20260831220621 | 80 | 44 | 5.0 | 8.0 | 0.00 | 0.00 | 0.00 | 1 | 1012.2 |
| 20260831215621 | 81 | 52 | 5.0 | 7.0 | 0.00 | 0.00 | 0.00 | 1 | 1012.3 |
| 20260831214634 | 81 | 35 | 7.0 | 9.0 | 0.00 | 0.00 | 0.00 | 1 | 1012.4 |
| 20260831213630 | 79 | 52 | 4.0 | 6.0 | 0.00 | 0.00 | 0.00 | 1 | 1012.8 |
| 20260831212627 | 79 | 40 | 5.0 | 9.0 | 0.00 | 0.00 | 0.00 | 1 | 1012.8 |
| 20260831211704 | 79 | 55 | 6.0 | 8.0 | 0.00 | 0.00 | 0.00 | 1 | 1013.1 |
| 20260831210620 | 78 | 50 | 5.0 | 6.0 | 0.00 | 0.00 | 0.00 | 1 | 1013.3 |
| 20260831205636 | 78 | 36 | 6.0 | 9.0 | 0.00 | 0.00 | 0.00 | 1 | 1013.3 |
| 20260831204633 | 77 | 39 | 4.0 | 5.0 | 0.00 | 0.00 | 0.00 | 1 | 1013.6 |
| 20260831203630 | 77 | 41 | 4.0 | 8.0 | 0.00 | 0.00 | 0.00 | 1 | 1013.8 |
| 20260831202626 | 76 | 39 | 4.0 | 5.0 | 0.00 | 0.00 | 0.00 | 1 | 1013.9 |
| 20260831201623 | 76 | 29 | 3.0 | 4.0 | 0.00 | 0.00 | 0.00 | 1 | 1014.1 |
| 20260831200620 | 76 | 58 | 5.0 | 8.0 | 0.00 | 0.00 | 0.00 | 1 | 1014.3 |
| 20260831195616 | 75 | 60 | 7.0 | 9.0 | 0.00 | 0.00 | 0.00 | 1 | 1014.4 |
| 20260831194632 | 74 | 38 | 5.0 | 9.0 | 0.00 | 0.00 | 0.00 | 1 | 1014.7 |
| 20260831193629 | 74 | 33 | 6.0 | 9.0 | 0.00 | 0.00 | 0.00 | 1 | 1014.7 |
| 20260831192625 | 74 | 33 | 5.0 | 8.0 | 0.00 | 0.00 | 0.00 | 1 | 1015.0 |
| 20260831191643 | 73 | 63 | 5.0 | 8.0 | 0.00 | 0.00 | 0.00 | 1 | 1015.2 |
| 20260831190619 | 73 | 18 | 6.0 | 7.0 | 0.00 | 0.00 | 0.00 | 1 | 1015.3 |
| 20260831185636 | 72 | 27 | 6.0 | 7.0 | 0.00 | 0.00 | 0.00 | 1 | 1015.4 |
| 20260831184632 | 71 | 28 | 5.0 | 7.0 | 0.00 | 0.00 | 0.00 | 1 | 1015.7 |
| 20260831183629 | 70 | 42 | 3.0 | 6.0 | 0.00 | 0.00 | 0.00 | 1 | 1015.7 |
| 20260831182625 | 70 | 32 | 5.0 | 6.0 | 0.00 | 0.00 | 0.00 | 1 | 1015.9 |
| 20260831181622 | 70 | 52 | 5.0 | 8.0 | 0.00 | 0.00 | 0.00 | 1 | 1016.0 |
| 20260831180639 | 69 | 25 | 3.0 | 4.0 | 0.00 | 0.00 | 0.00 | 1 | 1016.1 |
| 20260831175635 | 69 | 12 | 5.0 | 7.0 | 0.00 | 0.00 | 0.00 | 1 | 1016.3 |
| 20260831174632 | 68 | 24 | 5.0 | 6.0 | 0.00 | 0.00 | 0.00 | 1 | 1016.3 |
| 20260831173629 | 68 | 43 | 4.0 | 6.0 | 0.00 | 0.00 | 0.00 | 1 | 1016.3 |
| 20260831172645 | 67 | 340 | 4.0 | 5.0 | 0.00 | 0.00 | 0.00 | 1 | 1016.3 |
| 20260831171622 | 67 | 340 | 2.0 | 3.0 | 0.00 | 0.00 | 0.00 | 1 | 1016.4 |
| 20260831170618 | 67 | 51 | 1.0 | 2.0 | 0.00 | 0.00 | 0.00 | 1 | 1016.8 |
| 20260831165635 | 65 | 0.0 | 1.0 | 0.00 | 0.00 | 0.00 | 1 | 1016.5 | |
| 20260831164631 | 65 | 36 | 3.0 | 4.0 | 0.00 | 0.00 | 0.00 | 1 | 1016.9 |
| 20260831163628 | 65 | 86 | 1.0 | 3.0 | 0.00 | 0.00 | 0.00 | 1 | 1016.8 |
| 20260831162625 | 64 | 22 | 2.0 | 4.0 | 0.00 | 0.00 | 0.00 | 1 | 1016.9 |
| 20260831161621 | 63 | 66 | 3.0 | 4.0 | 0.00 | 0.00 | 0.00 | 1 | 1016.9 |
| 20260831160618 | 63 | 40 | 3.0 | 4.0 | 0.00 | 0.00 | 0.00 | 1 | 1017.0 |
| 20260831155634 | 63 | 35 | 4.0 | 6.0 | 0.00 | 0.00 | 0.00 | 1 | 1017.0 |
| 20260831154633 | 62 | 338 | 2.0 | 5.0 | 0.00 | 0.00 | 0.00 | 1 | 1017.0 |
| 20260831153628 | 62 | 16 | 2.0 | 3.0 | 0.00 | 0.00 | 0.00 | 1 | 1017.1 |
| 20260831152627 | 60 | 328 | 1.0 | 2.0 | 0.00 | 0.00 | 0.00 | 1 | 1017.0 |
| 20260831151620 | 60 | 322 | 2.0 | 3.0 | 0.00 | 0.00 | 0.00 | 1 | 1017.0 |
| 20260831150617 | 60 | 335 | 2.0 | 3.0 | 0.00 | 0.00 | 0.00 | 1 | 1016.9 |
| 20260831145654 | 59 | 340 | 3.0 | 4.0 | 0.00 | 0.00 | 0.00 | 1 | 1017.0 |
| 20260831144631 | 58 | 353 | 3.0 | 4.0 | 0.00 | 0.00 | 0.00 | 1 | 1016.9 |
| 20260831143649 | 58 | 337 | 3.0 | 4.0 | 0.00 | 0.00 | 0.00 | 1 | 1016.7 |
| 20260831142625 | 59 | 320 | 0.0 | 2.0 | 0.00 | 0.00 | 0.00 | 1 | 1016.6 |
| 20260831141621 | 57 | 0.0 | 2.0 | 0.00 | 0.00 | 0.00 | 1 | 1016.5 | |
| 20260831140621 | 56 | 279 | 1.0 | 2.0 | 0.00 | 0.00 | 0.00 | 1 | 1016.6 |
| 20260831135635 | 55 | 264 | 1.0 | 3.0 | 0.00 | 0.00 | 0.00 | 1 | 1016.5 |
| 20260831134631 | 55 | 0.0 | 1.0 | 0.00 | 0.00 | 0.00 | 1 | 1016.6 | |
| 20260831133629 | 54 | 251 | 4.0 | 5.0 | 0.00 | 0.00 | 0.00 | 1 | 1016.6 |
| 20260831132645 | 53 | 207 | 2.0 | 4.0 | 0.00 | 0.00 | 0.00 | 1 | 1016.6 |
| 20260831131621 | 53 | 221 | 1.0 | 2.0 | 0.00 | 0.00 | 0.00 | 1 | 1016.5 |
| 20260831130618 | 54 | 180 | 2.0 | 3.0 | 0.00 | 0.00 | 0.00 | 1 | 1016.3 |
| 20260831125636 | 54 | 97 | 1.0 | 2.0 | 0.00 | 0.00 | 0.00 | 1 | 1016.3 |
| 20260831124631 | 55 | 295 | 1.0 | 3.0 | 0.00 | 0.00 | 0.00 | 1 | 1016.4 |
| 20260831123628 | 55 | 0.0 | 1.0 | 0.00 | 0.00 | 0.00 | 1 | 1016.4 | |
| 20260831122625 | 55 | 276 | 0.0 | 1.0 | 0.00 | 0.00 | 0.00 | 1 | 1016.3 |
| 20260831121641 | 54 | 250 | 1.0 | 2.0 | 0.00 | 0.00 | 0.00 | 1 | 1016.3 |
| 20260831120619 | 55 | 277 | 2.0 | 2.0 | 0.00 | 0.00 | 0.00 | 1 | 1016.3 |
| 20260831115634 | 55 | 218 | 2.0 | 3.0 | 0.00 | 0.00 | 0.00 | 1 | 1016.3 |
| 20260831114652 | 55 | 252 | 1.0 | 2.0 | 0.00 | 0.00 | 0.00 | 1 | 1016.2 |
| 20260831113629 | 56 | 213 | 2.0 | 3.0 | 0.00 | 0.00 | 0.00 | 1 | 1016.4 |
| 20260831112625 | 56 | 238 | 2.0 | 2.0 | 0.00 | 0.00 | 0.00 | 1 | 1016.4 |
| 20260831111622 | 55 | 227 | 1.0 | 2.0 | 0.00 | 0.00 | 0.00 | 1 | 1016.3 |
| 20260831110619 | 55 | 270 | 1.0 | 1.0 | 0.00 | 0.00 | 0.00 | 1 | 1016.4 |
| 20260831105620 | 56 | 246 | 1.0 | 2.0 | 0.00 | 0.00 | 0.00 | 1 | 1016.4 |
| 20260831104617 | 56 | 238 | 1.0 | 2.0 | 0.00 | 0.00 | 0.00 | 1 | 1016.2 |